Weather History for Manhattan, KS

Change the Weather History Date:

Monday, March 4, 2013

  Actual Average Record
Temperature  
Mean Temperature 38 °F 38 °F  
Max Temperature 47 °F 52 °F 70 °F (2005)
Min Temperature 29 °F 26 °F 3 °F (2002)
Degree Days  
Heating Degree Days 27 27  
Month to date heating degree days 130 109  
Since 1 July heating degree days 3887 4269  
Cooling Degree Days 0 0  
Month to date cooling degree days 0 0  
Year to date cooling degree days 0 0  
Moisture  
Dew Point 32 °F    
Average Humidity 76    
Maximum Humidity 92    
Minimum Humidity 60    
Precipitation  
Precipitation 0.02 in 0.07 in 1.75 in (2004)
Month to date precipitation 0.02 0.29  
Year to date precipitation 1.73 2.01  
Sea Level Pressure  
Sea Level Pressure 29.83 in    
Wind  
Wind Speed 6 mph (North)    
Max Wind Speed 13 mph    
Max Gust Speed 23 mph    
Visibility 10 miles    
Events Rain    
T = Trace of Precipitation, MM = Missing Value Source: NWS Daily Summary

Daily Weather History Graph

Daily Weather History Graph

Search for Another Location

Airport:

Trip Planner

Search our weather history database for the weather conditions in past years. The results will help you decide how hot, cold, wet, or windy it might be!

Date:

Astronomy

Mar. 04, 2013 Rise Set
Actual Time 6:54 AM CST 6:22 PM CST
Civil Twilight 6:27 AM CST 6:49 PM CST
Nautical Twilight 5:56 AM CST 7:20 PM CST
Astronomical Twilight 5:25 AM CST 7:51 PM CST
Moon 1:03 AM CST (3/4) 11:07 AM CST (3/4)
Length of Visible Light 12h 21m
Length of Day
11h 28m
Waning Gibbous, 52% of the Moon is Illuminated
Mar 4
Waning Gibbous
Mar 4
Last Quarter
Mar 11
New
Mar 19
First Quarter
Mar 27
Full

Hourly Weather History & Observations

Time (CST) Temp. Windchill Dew Point Humidity Pressure Visibility Wind Dir Wind Speed Gust Speed Precip Events Conditions
12:52 AM 37.9 °F - 30.9 °F 76% 29.67 in 10.0 mi Calm Calm - N/A   Clear
1:52 AM 34.0 °F 29.8 °F 28.9 °F 82% 29.66 in 10.0 mi ENE 4.6 mph - N/A   Clear
2:52 AM 35.1 °F 32.2 °F 30.0 °F 82% 29.65 in 10.0 mi East 3.5 mph - N/A   Clear
3:52 AM 35.1 °F 30.1 °F 30.0 °F 82% 29.65 in 10.0 mi North 5.8 mph - N/A   Clear
5:52 AM 30.9 °F - 28.9 °F 92% 29.67 in 10.0 mi Calm Calm - N/A   Clear
6:52 AM 32.0 °F - 30.0 °F 92% 29.67 in 10.0 mi Calm Calm - N/A   Clear
7:52 AM 34.0 °F - 30.9 °F 89% 29.68 in 10.0 mi Calm Calm - N/A   Clear
8:52 AM 37.0 °F - 32.0 °F 82% 29.70 in 10.0 mi Calm Calm - N/A   Clear
9:52 AM 39.9 °F - 32.0 °F 73% 29.70 in 10.0 mi Calm Calm - N/A   Clear
10:52 AM 43.0 °F 37.2 °F 33.1 °F 68% 29.72 in 10.0 mi NW 10.4 mph 16.1 mph N/A   Clear
11:52 AM 44.1 °F 40.1 °F 34.0 °F 68% 29.73 in 10.0 mi NNW 6.9 mph 17.3 mph N/A   Partly Cloudy
12:52 PM 46.0 °F 41.0 °F 34.0 °F 63% 29.72 in 10.0 mi North 10.4 mph 21.9 mph N/A   Clear
1:52 PM 45.0 °F 38.9 °F 34.0 °F 65% 29.73 in 10.0 mi NNE 12.7 mph 19.6 mph N/A   Partly Cloudy
2:52 PM 45.0 °F 40.6 °F 34.0 °F 65% 29.73 in 10.0 mi North 8.1 mph 17.3 mph N/A   Mostly Cloudy
3:52 PM 46.9 °F - 34.0 °F 61% 29.74 in 10.0 mi NNE 12.7 mph 18.4 mph N/A   Partly Cloudy
4:52 PM 45.0 °F 41.2 °F 33.1 °F 63% 29.81 in 10.0 mi North 6.9 mph - N/A   Mostly Cloudy
5:52 PM 43.0 °F 36.8 °F 32.0 °F 65% 29.89 in 9.0 mi NNW 11.5 mph 23.0 mph N/A   Overcast
6:10 PM 42.8 °F 36.6 °F 33.8 °F 70% 29.87 in 9.0 mi North 11.5 mph 19.6 mph N/A   Overcast
6:38 PM 42.8 °F 37.0 °F 32.0 °F 66% 29.90 in 10.0 mi North 10.4 mph 17.3 mph 0.00 in   Overcast
6:52 PM 42.1 °F 35.2 °F 32.0 °F 67% 29.93 in 10.0 mi North 12.7 mph 23.0 mph 0.00 in   Overcast
7:52 PM 41.0 °F 37.1 °F 32.0 °F 70% 29.97 in 10.0 mi North 5.8 mph - N/A   Overcast
8:52 PM 39.9 °F 33.9 °F 33.1 °F 77% 30.03 in 10.0 mi North 9.2 mph 18.4 mph 0.00 in Rain Light Rain
9:52 PM 36.0 °F 32.1 °F 34.0 °F 93% 30.06 in 8.0 mi Variable 4.6 mph - 0.02 in Rain Light Rain
10:03 PM 35.6 °F 29.9 °F 33.8 °F 93% 30.04 in 10.0 mi Variable 6.9 mph - 0.00 in Rain Light Rain
10:12 PM 35.6 °F 31.7 °F 33.8 °F 93% 30.04 in 10.0 mi NNW 4.6 mph - 0.00 in Rain Light Rain
10:21 PM 35.6 °F 32.8 °F 33.8 °F 93% 30.03 in 10.0 mi North 3.5 mph - 0.00 in Rain Light Rain
10:52 PM 36.0 °F 33.3 °F 33.1 °F 89% 30.06 in 10.0 mi NNW 3.5 mph - 0.00 in   Overcast
11:20 PM 35.6 °F - 33.8 °F 93% 30.04 in 10.0 mi Calm Calm - N/A   Overcast
11:52 PM 36.0 °F 33.3 °F 34.0 °F 93% 30.06 in 9.0 mi North 3.5 mph - N/A   Overcast